"Pseudo-MPEC" for P11ZQp8

Created 2024 Oct 13 19:31:08 UT using Find_Orb

Click here for an explanation of pseudo-MPECs

 
 Astrometry: 
     P11ZQp8* C2024 10 01.53640503 34 47.104-43 22 21.69   ~A1E7 21.91wXNEOCPF51
     P11ZQp8  C2024 10 01.54351903 34 46.669-43 22 18.91   ~A1E7 21.46wXNEOCPF51
     P11ZQp8  C2024 10 01.55062503 34 46.225-43 22 16.20   ~A1E7 21.36wXNEOCPF51
     P11ZQp8 |C2024 10 02.31606003 34 01.670-43 17 00.40   ~A297 21.4 GVNEOCP807
     P11ZQp8 |C2024 10 02.32161003 34 01.300-43 16 58.20   ~A297 21.5 GVNEOCP807
     P11ZQp8 |C2024 10 02.32716003 34 00.940-43 16 55.90   ~A297 21.4 GVNEOCP807
     P11ZQp8 |C2024 10 04.29679003 31 56.340-43 02 07.70   ~A487 21.5 GVNEOCP807
     P11ZQp8 |C2024 10 04.30233003 31 55.940-43 02 05.10   ~A487 21.5 GVNEOCP807
     P11ZQp8 |C2024 10 04.30788003 31 55.530-43 02 02.40   ~A487 21.5 GVNEOCP807

Station data:
(807) Cerro Tololo Observatory, La Serena  (S30.169133 W70.805900)  Chile.
   Observer R. Holmes. 0.61-m f/6.5 astrograph + CCD.
(F51) Pan-STARRS 1, Haleakala  (N20.707234 W156.255910)  US/Hawaii.
   Observers J. Bulger, T. Lowe, A. Schultz, M. Willman. Measurers K.
   Chambers, S. Chastel, T. de Boer, L. Denneau, J. Fairlamb, H. Flewelling,
   M. Huber, C.-C. Lin, E. Magnier, Y. Ramanjooloo, R. Wainscoat, R. Weryk.
   1.8-m Ritchey-Chrétien + CCD.

Orbital elements:  P11ZQp8
   Perihelion 2024 Sep 16.45395 +/- 20.5 TT = 10:53:41 (JD 2460569.95395)
Epoch 2024 Oct  4.0 TT = JDT 2460587.5   Earth MOID: 0.7565      AutoNEOCP
M   3.65113736 +/- 5.1              (J2000 ecliptic)
n   0.20808886 +/- 0.0511           Peri.  289.39439 +/- 17
a   2.82035312 +/- 0.462            Node    72.66095 +/- 5.1
e   0.4504055 +/- 0.057             Incl.   30.95530 +/- 3.6
P   4.73647                H 19.71  G  0.15   U 10.7
q 1.55005030 +/- 0.0929    Q 4.09065594 +/- 0.83
From 9 observations 2024 Oct. 1-4; mean residual 0".05
Residuals in arcseconds: 
241001 F51  .07-  .01-    241002 807  .08+  .12+    241004 807  .02+  .05+    
241001 F51  .03+  .02+    241002 807  .02-  .00     241004 807  .03+  .04-    
241001 F51  .04+  .02-    241002 807  .01-  .02-    241004 807  .06-  .04-    

Ephemerides (geocentric):
Date (UTC) HH   RA             Dec           delta  r     elong  mag " sig PA
---- --------  ------------   ------------  ------ ------ -----  --- --------
2024 10 13 20  03 18 51.216   -41 13 37.51  .78385 1.5706 123.2 21.5 43.4  98
2024 10 13 21  03 18 47.228   -41 13 00.11  .78377 1.5707 123.3 21.5 43.9  98
2024 10 13 22  03 18 43.236   -41 12 22.63  .78369 1.5707 123.3 21.5 44.4  98
2024 10 13 23  03 18 39.240   -41 11 45.06  .78361 1.5708 123.3 21.5 44.9  98
2024 10 14 00  03 18 35.240   -41 11 07.41  .78353 1.5708 123.3 21.5 45.5  98
2024 10 14 01  03 18 31.237   -41 10 29.67  .78345 1.5709 123.3 21.5 46.0  98
2024 10 14 02  03 18 27.229   -41 09 51.86  .78337 1.5710 123.4 21.5 46.5  98
2024 10 14 03  03 18 23.217   -41 09 13.95  .78328 1.5710 123.4 21.5 47.0  98
2024 10 14 04  03 18 19.202   -41 08 35.97  .78320 1.5711 123.4 21.5 47.6  98
2024 10 14 05  03 18 15.182   -41 07 57.90  .78312 1.5712 123.4 21.5 48.1  98
2024 10 14 06  03 18 11.159   -41 07 19.74  .78304 1.5712 123.4 21.5 48.7  99
2024 10 14 07  03 18 07.131   -41 06 41.50  .78296 1.5713 123.5 21.5 49.2  99
2024 10 14 08  03 18 03.100   -41 06 03.17  .78288 1.5713 123.5 21.5 49.8  99
2024 10 14 09  03 17 59.065   -41 05 24.77  .78280 1.5714 123.5 21.5 50.3  99
2024 10 14 10  03 17 55.026   -41 04 46.27  .78272 1.5715 123.5 21.5 50.9  99
2024 10 14 11  03 17 50.983   -41 04 07.69  .78265 1.5715 123.5 21.5 51.5  99
2024 10 14 12  03 17 46.937   -41 03 29.03  .78257 1.5716 123.6 21.5 52.0  99
2024 10 14 13  03 17 42.886   -41 02 50.28  .78249 1.5717 123.6 21.5 52.6  99
2024 10 14 14  03 17 38.832   -41 02 11.45  .78241 1.5717 123.6 21.5 53.2  99
2024 10 14 15  03 17 34.774   -41 01 32.53  .78233 1.5718 123.6 21.5 53.8  99
2024 10 14 16  03 17 30.712   -41 00 53.53  .78225 1.5719 123.6 21.5 54.4  99
2024 10 14 17  03 17 26.646   -41 00 14.44  .78217 1.5719 123.7 21.5 54.9  99
2024 10 14 18  03 17 22.577   -40 59 35.27  .78209 1.5720 123.7 21.5 55.5 100
2024 10 14 19  03 17 18.504   -40 58 56.01  .78202 1.5720 123.7 21.5 56.1 100
2024 10 14 20  03 17 14.427   -40 58 16.67  .78194 1.5721 123.7 21.5 56.8 100
2024 10 14 21  03 17 10.346   -40 57 37.24  .78186 1.5722 123.7 21.5 57.4 100
2024 10 14 22  03 17 06.262   -40 56 57.72  .78178 1.5722 123.8 21.5 58.0 100
2024 10 14 23  03 17 02.173   -40 56 18.13  .78171 1.5723 123.8 21.5 58.6 100
2024 10 15 00  03 16 58.082   -40 55 38.44  .78163 1.5724 123.8 21.5 59.2 100
2024 10 15 01  03 16 53.986   -40 54 58.67  .78155 1.5724 123.8 21.5 59.9 100
2024 10 15 02  03 16 49.887   -40 54 18.81  .78148 1.5725 123.8 21.5 60.5 100
2024 10 15 03  03 16 45.784   -40 53 38.87  .78140 1.5726 123.9 21.5 61.1 100
2024 10 15 04  03 16 41.678   -40 52 58.85  .78132 1.5726 123.9 21.5 61.8 100
2024 10 15 05  03 16 37.568   -40 52 18.73  .78125 1.5727 123.9 21.5 62.4 100
2024 10 15 06  03 16 33.454   -40 51 38.54  .78117 1.5728 123.9 21.5 63.1 101
2024 10 15 07  03 16 29.336   -40 50 58.25  .78110 1.5728 123.9 21.5 63.7 101
2024 10 15 08  03 16 25.216   -40 50 17.88  .78102 1.5729 124.0 21.5 64.4 101
2024 10 15 09  03 16 21.091   -40 49 37.42  .78094 1.5729 124.0 21.5 65.1 101
2024 10 15 10  03 16 16.963   -40 48 56.88  .78087 1.5730 124.0 21.5 65.7 101
2024 10 15 11  03 16 12.831   -40 48 16.25  .78079 1.5731 124.0 21.5 66.4 101
2024 10 15 12  03 16 08.696   -40 47 35.54  .78072 1.5731 124.0 21.5 67.1 101
2024 10 15 13  03 16 04.557   -40 46 54.74  .78064 1.5732 124.0 21.5 67.8 101
2024 10 15 14  03 16 00.415   -40 46 13.85  .78057 1.5733 124.1 21.5 68.5 101
2024 10 15 15  03 15 56.269   -40 45 32.88  .78050 1.5733 124.1 21.5 69.2 101
2024 10 15 16  03 15 52.120   -40 44 51.82  .78042 1.5734 124.1 21.5 69.9 101
2024 10 15 17  03 15 47.967   -40 44 10.67  .78035 1.5735 124.1 21.5 70.6 101
2024 10 15 18  03 15 43.811   -40 43 29.44  .78027 1.5735 124.1 21.5 71.3 102
2024 10 15 19  03 15 39.651   -40 42 48.12  .78020 1.5736 124.2 21.5 72.0 102